Regional Weather Roundup
Issued by NWS

Home | Current Version | Previous Version | Text Only | Print | Product List | Glossary On
Versions: 1 2 3 4 5 6 7 8 9 10 11 12 13 14 15 16 17 18 19 20 21 22 23 24 25 26 27 28 29 30 31 32 33 34 35 36 37 38 39 40 41 42 43 44 45 46 47 48 49 50
000
ASUS46 KPQR 171210
RWROR

OREGON REGIONAL WEATHER ROUNDUP
NATIONAL WEATHER SERVICE PORTLAND OR
400 AM PST TUE JAN 17 2017

NOTE: "FAIR" INDICATES FEW OR NO CLOUDS BELOW 12,000 FEET WITH
NO SIGNIFICANT WEATHER AND/OR OBSTRUCTIONS TO VISIBILITY.

ORZ001>013-171300-
NORTHWEST OREGON


CITY           SKY/WX    TMP DP  RH WIND       PRES   REMARKS
ASTORIA        CLOUDY    42  27  55 E9        29.83F
6HR MIN TEMP:  38; 6HR MAX TEMP:  42;

NEWPORT        CLOUDY    45  32  61 SE8       29.96F
PORTLAND       CLOUDY    26  16  65 SE14      30.03F WCI  14
6HR MIN TEMP:  24; 6HR MAX TEMP:  26;

VANCOUVER WA   CLOUDY    27  16  63 SE9       30.03F WCI  18
6HR MIN TEMP:  25; 6HR MAX TEMP:  27;

SCAPPOOSE      CLOUDY    28  17  63 SE9       30.02F WCI  19
6HR MIN TEMP:  25; 6HR MAX TEMP:  28;

HILLSBORO      CLOUDY    28  25  88 CALM      30.01F FOG
6HR MIN TEMP:  23; 6HR MAX TEMP:  30;

AURORA         CLOUDY    30  21  69 N3        30.01F
6HR MIN TEMP:  27; 6HR MAX TEMP:  31;

MCMINNVILLE    CLOUDY    30  25  81 N5        30.02F WCI  25
6HR MIN TEMP:  24; 6HR MAX TEMP:  30;

SALEM          CLOUDY    31  22  69 NW5       30.00S WCI  26
6HR MIN TEMP:  26; 6HR MAX TEMP:  31;

CORVALLIS        N/A     30  27  86 CALM      29.99F
EUGENE         CLOUDY    34  32  92 SW10      30.00F WCI  26
6HR MIN TEMP:  27; 6HR MAX TEMP:  34;

$$

ORZ021-028-171300-
SOUTHWEST OREGON


CITY           SKY/WX    TMP DP  RH WIND       PRES   REMARKS
NORTH BEND     CLOUDY    43  39  87 CALM      30.00R
6HR MIN TEMP:  41; 6HR MAX TEMP:  45;

BROOKINGS      CLOUDY    41  37  86 VRB5      30.03F
ROSEBURG       FOG       35  35 100 CALM      30.03S VSB 1/4
6HR MIN TEMP:  35; 6HR MAX TEMP:  38;

SEXTON SUMMIT  MOCLDY    40  24  53 S14       30.01S WCI  32
6HR MIN TEMP:  40; 6HR MAX TEMP:  44;

MEDFORD        FOG       28  26  92 CALM      30.08F VSB 1
6HR MIN TEMP:  27; 6HR MAX TEMP:  34;

$$

ORZ014>016-041-171300-
COLUMBIA GORGE


CITY           SKY/WX    TMP DP  RH WIND       PRES   REMARKS
TROUTDALE      CLOUDY    25  15  66 E26G40    30.02F WCI   9
6HR MIN TEMP:  24; 6HR MAX TEMP:  25; 6HR PCP: TRACE;

THE DALLES     PTCLDY    15   9  76 CALM      30.28F
6HR MIN TEMP:  11; 6HR MAX TEMP:  15;

$$

ORZ029>031-041-044-049-050-061>064-502-503-505>511-171300-
EASTERN OREGON


CITY           SKY/WX    TMP DP  RH WIND       PRES   REMARKS
REDMOND        PTCLDY    24  13  62 SE3       30.02F
6HR MIN TEMP:   7; 6HR MAX TEMP:  27;

BEND           CLEAR     28  16  59 SE13      30.02F WCI  18
PRINEVILLE     CLEAR     27  16  63 S10       30.04F WCI  17
KLAMATH FALLS  CLEAR     18  16  92 E6        30.11F WCI  10
6HR MIN TEMP:  14; 6HR MAX TEMP:  22;

LAKEVIEW       CLEAR      7   3  85 NW6       30.12F WCI  -3
HERMISTON      PTCLDY     0  -3  87 CALM      30.24F
6HR MIN TEMP:   0; 6HR MAX TEMP:   4;

PENDLETON      FOG        2   0  91 SE5       30.14F VSB 1/4 WCI  -8
6HR MIN TEMP:   0; 6HR MAX TEMP:   4;

JOHN DAY       CLEAR     24  14  67 E14       30.08F WCI  11
MEACHAM        PTCLDY    18   9  68 VRB3      30.04F
6HR MIN TEMP:  16; 6HR MAX TEMP:  18;

LA GRANDE      PTCLDY    16   9  73 S28G41    30.18F WCI  -4
6HR MIN TEMP:  16; 6HR MAX TEMP:  18;

BAKER CITY     PTCLDY    -9 -12  87 S3        30.26F
6HR MIN TEMP: -11; 6HR MAX TEMP:  -3;

BURNS          MOCLDY    -2  -5  87 CALM      30.17F
6HR MIN TEMP:  -9; 6HR MAX TEMP:  -1;

ROME             N/A      0  -4  83 VRB5      30.21R WCI -10
6HR MIN TEMP:  -2; 6HR MAX TEMP:   8;

ONTARIO        HAZE      -5 -11  75 CALM      30.47S VSB 1/4
6HR MIN TEMP:  -7; 6HR MAX TEMP:  -1;

$$



USA.gov is the U.S. government's official web portal to all federal, state and local government web resources and services.